Regional Weather Roundup
Issued by NWS Cleveland, OH

Home | Current Version | Previous Version | Graphics & Text | Print | Product List | Glossary On
Versions: 1 2 3 4 5 6 7 8 9 10 11 12 13 14 15 16 17 18 19 20 21 22 23 24 25 26 27 28 29 30 31 32 33 34 35 36 37 38 39 40 41 42 43 44 45 46 47 48 49 50
000
ASUS41 KCLE 280410
RWRCLE
OHIO REGIONAL WEATHER ROUNDUP
NATIONAL WEATHER SERVICE CLEVELAND, OH
1100 PM EST MON FEB 27 2017

NOTE: "FAIR" INDICATES FEW OR NO CLOUDS BELOW 12,000 FEET WITH NO
SIGNIFICANT WEATHER AND/OR OBSTRUCTIONS TO VISIBILITY.

OHZ001>008-015>018-024>027-034-035-043-044-280500-
   NORTHWEST OHIO

CITY           SKY/WX    TMP DP  RH WIND       PRES   REMARKS
DEFIANCE       CLOUDY    39  35  86 SE5       30.19S
FINDLAY        CLOUDY    44  39  82 S9        30.21R
TOLEDO EXPRESS CLOUDY    39  38  96 CALM      30.20S
TOLEDO EXEC    CLOUDY    39  37  92 S5        30.22R
LIMA           MOCLDY    41  40  96 S7        30.20R
$$

OHZ009>014-019>023-028>033-038-089-280500-
   NORTHEAST OHIO

CITY           SKY/WX    TMP DP  RH WIND       PRES   REMARKS
CLE-HOPKINS    CLOUDY    43  36  76 S9        30.25F
CLE-LAKEFRONT  CLOUDY    43  36  76 S12       30.23F
CUY CO. ARPT   CLOUDY    41  34  75 S12       30.24F
LORAIN-ELYRIA  CLOUDY    42  36  79 S8        30.23F
ASHTABULA      CLOUDY    39  36  89 S8        30.25F
AKRON-CANTON   PTCLDY    38  34  85 SE6       30.23F
WOOSTER        CLOUDY    36  34  92 S3        30.23F
MANSFIELD      CLOUDY    39  38  96 SE7       30.21F
YOUNGSTOWN     CLOUDY    40  36  86 S7        30.25S
$$

OHZ042-051>053-060>062-070>072-077>081-280500-
  SOUTHWEST OHIO

CITY           SKY/WX    TMP DP  RH WIND       PRES   REMARKS
CINC-COVINGTON CLEAR     42  40  92 S5        30.19S
CINC-LUNKEN    FOG       35  35 100 CALM      30.22S VSB 1/2
HAMILTON       CLOUDY    40  39  97 E3        30.22R
DAYTON         CLOUDY    43  40  89 SE9       30.20R
WRIGHT-PAT AFB PTCLDY    44  42  95 SE7       30.21R
DAYTON GENERAL MOCLDY    43  39  86 SE7       30.19R
WILMINGTON     CLEAR     41  38  89 SE8       30.20F
$$

OHZ036-037-039>041-045>050-054>059-063>069-073>076-082>088-280500-
  CENTRAL AND SOUTHEAST OHIO

CITY           SKY/WX    TMP DP  RH WIND       PRES   REMARKS
COLUMBUS       CLOUDY    43  40  89 SE9       30.21F
OSU AIRPORT    CLOUDY    41  40  96 SE6       30.21F
BOLTON FIELD   CLOUDY    38  38  99 SE3       30.22S
RICKENBACK AFB CLOUDY    39  39  99 SE6       30.21F
NEWARK         CLEAR     35  33  92 CALM      30.22F FOG
MARION         CLOUDY    39  37  92 S7        30.21F
LANCASTER      CLEAR     42  40  92 SE6       30.23F
ZANESVILLE     CLEAR     38  37  97 SE5       30.24F FOG
NEW PHILLY     NOT AVBL
$$




USA.gov is the U.S. government's official web portal to all federal, state and local government web resources and services.